Wind_Speed
19 19 19 19 20 21 22 23 23 21 21 20 21 21 21 21 21 22 23 23 23 23 23 23 23 23 23 23 23 23 23 23 23 23 24 24 24 23 23 23 24 25 25 25
20 21 21 21 21 22 23 23 24 23 22 21 22 22 22 22 22 23 23 24 24 24 24 24 23 24 23 23 23 23 23 23 23 23 24 24 24 24 24 24 25 26 26 26
21 22 23 23 22 22 23 24 24 24 23 22 23 24 23 22 23 24 23 23 24 25 25 24 24 25 24 23 24 24 24 24 24 24 24 24 24 25 25 25 25 26 27 27
22 22 23 22 22 23 23 24 25 25 24 24 23 25 25 24 24 24 24 24 25 25 24 24 25 25 24 24 24 25 25 25 25 25 25 25 25 25 26 26 26 26 27 28
24 24 23 22 22 23 24 25 26 25 24 26 26 26 26 26 26 26 26 26 25 25 25 25 26 26 25 25 25 26 26 26 26 26 26 26 26 26 26 27 27 27 27 28
25 26 24 23 23 24 26 26 27 27 26 27 27 28 27 28 28 28 28 28 27 26 25 26 26 26 26 26 26 26 26 26 26 26 26 26 27 27 27 27 28 28 28 28
26 26 26 25 24 25 26 26 27 28 28 28 28 29 29 30 30 30 30 29 29 27 26 26 27 27 27 27 27 27 27 27 27 27 27 27 28 28 28 28 28 29 30 30
26 27 26 26 26 27 27 27 28 29 30 29 29 30 30 31 31 31 31 31 30 30 29 28 28 29 29 29 29 28 28 28 29 29 29 29 29 29 29 30 30 31 31 32
27 27 27 27 27 28 28 28 28 29 30 30 30 30 31 31 32 32 32 31 31 31 30 30 30 30 30 30 30 30 30 30 29 29 30 30 30 30 31 31 32 32 32 33
28 28 28 29 29 30 31 31 31 32 32 31 31 32 32 32 32 33 32 32 32 32 32 32 32 32 31 31 32 32 31 31 31 31 31 31 32 32 33 33 33 33 34 34
28 29 30 30 30 31 32 32 33 33 34 34 33 32 32 32 33 32 33 33 34 34 33 34 34 33 33 33 33 33 33 33 32 32 32 32 33 33 34 34 34 35 35 34
30 29 30 30 31 31 32 32 33 33 34 35 35 34 33 32 33 34 34 35 36 36 35 35 35 35 34 34 34 34 34 34 33 34 34 34 35 35 35 35 35 35 35 35
30 30 30 30 30 31 31 32 33 34 35 35 35 35 34 33 33 34 35 36 36 36 36 35 35 35 35 34 35 35 35 34 34 35 35 34 34 34 35 35 35 36 36 35
30 30 30 30 31 31 32 33 33 34 35 36 36 36 35 35 35 35 35 35 35 35 35 35 35 35 35 35 35 36 35 35 35 35 35 35 35 35 35 35 36 36 36 36
30 30 30 30 30 31 32 32 33 34 35 35 36 36 35 34 35 35 35 35 34 34 34 35 35 36 36 36 36 36 35 35 35 35 35 35 35 35 35 35 35 35 35 35
30 31 32 32 32 32 32 33 34 34 34 34 35 36 35 34 35 35 36 36 36 35 35 34 35 35 36 36 36 36 36 36 35 35 36 36 35 35 35 34 34 34 34 34
30 31 32 32 32 32 33 34 34 34 34 33 34 35 36 36 35 35 36 36 37 36 35 35 35 34 34 34 34 35 36 36 35 35 35 35 35 34 34 33 33 34 34 34
31 31 31 31 31 31 32 33 33 33 33 33 33 33 35 35 35 35 36 36 36 35 34 34 34 34 34 33 34 34 35 35 35 34 34 34 34 34 33 33 33 33 33 32
30 30 30 31 31 31 31 31 32 32 32 33 32 32 33 34 34 34 35 34 33 32 32 33 33 33 33 33 34 34 34 34 34 34 34 34 34 33 33 32 32 32 32 32
29 30 30 30 31 31 31 32 32 32 32 32 32 32 32 32 32 32 32 32 31 31 32 32 33 33 33 34 34 34 34 33 33 33 33 33 32 31 31 31 31 31 31 30
28 29 29 29 30 31 31 31 31 31 31 31 31 32 32 32 32 32 32 31 31 31 31 32 32 32 32 32 32 33 32 32 32 32 32 31 30 30 30 30 30 29 28 28
28 29 29 29 30 30 31 31 31 30 30 30 30 31 31 31 32 31 30 30 30 30 30 30 31 31 31 31 31 31 31 31 31 30 30 29 29 29 28 28 28 27 26 26
29 28 29 29 30 30 30 30 30 30 30 30 29 29 29 29 29 29 29 28 28 28 28 29 29 29 29 29 29 30 30 30 30 29 29 28 27 27 26 26 26 26 25 25
29 29 28 29 29 29 29 29 28 28 29 28 28 28 28 28 28 28 27 27 26 26 26 27 27 28 28 27 28 28 28 28 28 28 27 26 26 26 26 25 25 24 24 24
28 28 28 27 27 27 27 27 27 27 27 27 26 26 27 27 27 26 26 25 25 25 25 25 25 26 25 25 25 26 26 25 25 25 24 24 25 25 25 25 24 23 23 23
26 26 26 26 26 26 26 25 25 25 25 25 24 24 24 25 24 23 23 23 23 23 24 23 23 23 22 22 22 22 22 22 22 21 22 22 22 22 22 23 23 23 22 23
25 25 25 25 25 24 24 24 24 23 23 22 23 23 23 22 22 22 22 21 22 22 22 21 20 20 19 19 20 20 20 20 20 20 20 20 20 20 20 21 22 22 22 22
Wind_Direction
274 275 273 270 269 269 268 267 267 270 271 271 265 265 267 268 267 267 270 271 271 273 275 276 277 277 277 277 276 277 278 278 278 277 275 275 275 274 276 278 280 282 285 285
272 273 274 271 267 268 268 266 266 268 271 269 267 268 269 268 268 267 268 271 272 273 276 277 278 278 276 276 276 276 276 277 277 278 277 276 275 274 275 278 281 283 285 285
272 272 274 272 271 270 269 267 267 270 270 269 266 268 269 270 269 269 270 270 272 275 276 276 278 279 276 277 277 277 277 276 277 278 277 275 275 275 276 279 282 284 284 284
275 274 273 276 275 273 270 269 268 271 268 267 268 269 270 270 271 272 272 273 273 274 274 274 276 279 278 277 277 277 276 277 277 277 277 276 276 276 277 279 282 284 284 283
275 275 278 276 276 274 272 270 270 271 270 268 270 270 270 271 271 272 273 273 275 275 274 274 275 276 277 276 276 276 276 277 278 278 278 278 278 279 280 281 282 283 284 284
276 277 278 279 279 278 274 271 270 272 272 272 271 271 270 270 271 272 273 274 275 275 275 274 274 275 275 275 274 275 276 277 279 279 279 278 278 279 280 281 282 283 284 285
276 278 279 279 279 277 276 273 271 271 272 272 271 272 270 269 270 271 271 272 273 274 274 275 275 275 275 275 274 275 276 276 277 277 278 277 277 278 279 281 282 283 284 284
278 277 278 279 277 277 278 276 273 272 273 274 274 273 271 270 270 271 271 271 271 271 272 273 274 275 275 274 274 275 276 275 275 275 276 276 276 277 279 281 283 284 285 285
278 278 278 278 278 278 278 277 275 273 274 276 276 274 273 271 270 270 270 270 269 270 271 272 273 274 274 274 274 275 275 274 275 275 275 276 276 277 279 281 282 284 285 285
277 278 278 278 278 277 277 277 276 275 273 275 278 276 274 272 270 269 269 269 269 270 271 272 273 273 273 273 274 274 274 275 275 275 275 275 276 277 279 280 282 283 285 285
277 276 276 276 277 278 277 276 276 277 276 276 277 278 275 272 270 269 269 269 269 270 271 272 272 272 273 273 274 274 274 274 273 274 275 276 276 278 279 280 281 283 285 285
279 278 277 276 276 276 277 276 276 275 274 275 275 277 275 272 270 268 268 268 268 269 270 271 271 272 272 272 273 273 273 273 273 273 275 275 276 277 278 279 281 282 284 285
279 277 277 277 278 278 278 278 278 277 275 274 274 274 273 270 269 269 268 268 269 269 270 271 271 272 271 271 271 272 272 272 272 273 274 275 276 277 277 279 281 282 283 284
277 277 277 278 280 281 281 280 281 281 278 276 275 273 272 271 270 270 269 269 268 269 269 270 271 272 270 270 271 271 272 272 272 273 275 276 277 277 278 279 281 282 283 284
277 276 276 277 279 280 280 280 281 281 280 278 276 274 272 272 271 271 270 269 269 269 269 269 270 271 270 271 271 271 271 272 272 273 274 276 277 278 279 279 281 282 284 284
279 278 277 277 278 279 280 280 281 282 282 279 276 275 274 273 271 271 271 271 269 269 269 270 271 271 271 271 271 271 271 272 272 273 275 276 277 277 278 279 280 282 283 284
279 279 278 278 278 280 281 281 281 282 282 280 277 276 274 273 272 271 272 272 272 271 270 270 271 271 270 271 271 271 272 272 273 274 275 276 277 277 277 278 281 282 282 283
281 281 280 280 280 281 282 281 281 282 281 280 278 277 275 274 273 273 273 273 272 270 269 269 269 269 270 270 271 272 273 273 274 275 276 276 277 277 277 278 280 282 283 283
282 281 280 281 281 282 282 281 281 282 281 279 278 277 276 275 274 274 275 273 271 269 268 269 269 270 270 270 272 274 275 274 275 276 275 275 276 277 277 278 279 281 282 283
284 284 283 283 284 285 285 284 283 284 283 280 279 278 278 277 276 274 274 273 272 270 269 269 270 271 272 273 274 275 276 275 276 276 276 275 274 275 276 277 278 280 280 282
287 288 287 286 286 287 287 286 286 285 284 282 281 280 278 277 277 275 275 274 273 272 271 271 271 271 272 273 275 276 276 276 275 274 275 275 274 274 274 275 277 279 280 281
289 290 288 288 288 289 288 287 286 286 285 283 282 281 280 278 278 277 275 274 273 272 272 272 272 272 272 273 274 275 275 274 274 274 274 274 275 276 276 276 276 277 279 281
289 289 289 290 291 291 291 289 288 288 287 286 285 283 280 279 279 278 275 273 272 272 272 272 272 271 272 273 274 274 274 274 274 274 275 275 275 275 276 277 277 277 278 281
290 290 292 293 293 293 293 292 290 290 290 288 287 285 284 282 281 279 276 273 272 271 271 271 272 272 273 273 275 276 276 276 275 274 273 273 273 273 274 276 277 278 279 280
290 291 292 293 293 294 295 294 293 292 291 289 287 286 284 283 281 278 275 273 270 269 270 271 272 273 273 273 274 274 274 275 275 275 274 273 274 274 274 275 276 277 278 281
291 292 292 292 294 295 296 297 297 295 293 290 288 287 286 283 281 278 276 273 270 270 271 271 272 271 272 273 273 274 274 275 275 275 275 275 276 276 275 275 276 276 279 282
292 293 293 293 294 296 298 299 299 296 294 292 290 288 286 283 281 278 275 273 271 270 269 269 268 268 269 272 274 275 275 276 276 277 277 277 277 276 275 275 276 277 279 281
Height
5778 5777 5776 5776 5775 5774 5773 5773 5772 5773 5773 5773 5773 5773 5773 5773 5773 5773 5773 5773 5772 5771 5770 5769 5768 5767 5765 5764 5763 5762 5761 5760 5759 5758 5757 5757 5756 5755 5754 5754 5753 5751 5749 5748
5772 5771 5770 5769 5769 5768 5767 5767 5767 5767 5767 5767 5766 5766 5766 5766 5766 5766 5766 5765 5765 5764 5763 5762 5761 5760 5758 5757 5756 5755 5754 5753 5752 5751 5750 5749 5748 5748 5747 5746 5745 5743 5742 5740
5765 5765 5763 5763 5763 5762 5761 5761 5760 5760 5761 5760 5759 5759 5759 5759 5759 5759 5759 5758 5757 5756 5755 5755 5754 5752 5751 5750 5749 5748 5747 5746 5745 5744 5743 5742 5741 5740 5739 5738 5737 5735 5734 5732
5758 5758 5756 5759 5756 5755 5754 5754 5753 5752 5752 5752 5752 5752 5751 5751 5751 5751 5751 5751 5750 5749 5748 5747 5746 5745 5744 5743 5742 5741 5740 5739 5738 5737 5736 5735 5734 5733 5732 5731 5729 5728 5726 5725
5750 5749 5749 5750 5749 5747 5747 5746 5745 5745 5744 5744 5744 5744 5744 5744 5743 5743 5743 5743 5742 5741 5740 5739 5738 5737 5736 5735 5735 5734 5733 5732 5731 5730 5729 5727 5726 5725 5724 5723 5721 5720 5718 5717
5742 5741 5741 5743 5741 5739 5739 5738 5738 5737 5736 5736 5736 5736 5737 5736 5735 5735 5735 5735 5734 5733 5732 5731 5730 5729 5729 5728 5727 5726 5725 5724 5723 5722 5721 5720 5718 5717 5716 5715 5713 5712 5710 5708
5734 5732 5733 5734 5733 5732 5732 5731 5729 5728 5727 5727 5727 5727 5727 5727 5726 5726 5726 5725 5725 5724 5724 5723 5722 5721 5721 5720 5719 5718 5717 5716 5715 5714 5713 5711 5710 5709 5708 5706 5705 5704 5702 5700
5727 5725 5727 5725 5724 5723 5722 5721 5720 5719 5718 5718 5718 5717 5717 5717 5717 5717 5716 5716 5716 5716 5715 5714 5714 5713 5712 5711 5710 5709 5708 5707 5706 5705 5704 5703 5702 5701 5699 5698 5696 5695 5693 5691
5719 5720 5718 5716 5715 5714 5713 5712 5711 5710 5709 5708 5708 5707 5707 5707 5707 5707 5707 5707 5707 5706 5706 5705 5704 5704 5703 5702 5701 5700 5699 5698 5697 5696 5695 5694 5693 5692 5690 5689 5687 5686 5684 5682
5711 5710 5709 5707 5706 5705 5703 5702 5701 5700 5699 5698 5697 5697 5696 5696 5696 5696 5696 5696 5696 5696 5695 5695 5694 5694 5693 5692 5691 5691 5690 5689 5688 5686 5686 5685 5684 5682 5681 5679 5678 5676 5674 5672
5702 5701 5699 5699 5697 5696 5694 5693 5692 5691 5689 5688 5687 5686 5686 5685 5685 5685 5685 5685 5685 5685 5685 5684 5684 5683 5683 5682 5682 5681 5680 5678 5677 5677 5676 5675 5674 5672 5671 5669 5668 5666 5664 5662
5692 5691 5690 5689 5688 5686 5685 5684 5682 5681 5680 5678 5677 5676 5675 5675 5675 5675 5675 5674 5674 5674 5674 5673 5673 5673 5672 5672 5671 5670 5669 5668 5667 5666 5666 5665 5663 5662 5660 5659 5657 5655 5654 5652
5682 5681 5680 5679 5678 5676 5674 5673 5672 5670 5669 5668 5667 5665 5664 5664 5664 5664 5664 5663 5663 5662 5662 5662 5662 5662 5661 5661 5660 5659 5659 5658 5657 5656 5655 5654 5652 5651 5650 5648 5647 5645 5643 5641
5672 5671 5670 5669 5667 5666 5664 5663 5661 5660 5658 5657 5656 5655 5654 5653 5653 5653 5653 5652 5652 5652 5652 5651 5651 5650 5650 5649 5649 5648 5648 5647 5646 5645 5644 5643 5642 5640 5639 5638 5636 5634 5633 5631
5662 5661 5660 5659 5658 5656 5655 5653 5652 5650 5648 5647 5645 5644 5643 5642 5642 5642 5642 5641 5641 5641 5640 5640 5640 5639 5639 5638 5638 5637 5637 5636 5635 5634 5633 5632 5631 5630 5628 5627 5625 5624 5622 5620
5652 5651 5650 5649 5648 5646 5645 5643 5641 5639 5638 5636 5635 5633 5632 5632 5631 5631 5631 5630 5630 5629 5629 5629 5629 5628 5627 5627 5627 5626 5625 5625 5624 5623 5622 5621 5620 5619 5618 5616 5615 5613 5611 5609
5643 5641 5640 5639 5637 5636 5634 5632 5630 5628 5627 5625 5624 5623 5622 5621 5620 5620 5620 5619 5618 5618 5617 5617 5617 5616 5616 5616 5615 5615 5614 5613 5613 5612 5611 5610 5609 5608 5607 5606 5604 5603 5601 5599
5633 5632 5630 5628 5627 5625 5623 5621 5620 5618 5616 5614 5613 5612 5611 5610 5609 5609 5609 5608 5607 5607 5606 5606 5605 5605 5605 5604 5604 5604 5603 5602 5602 5601 5600 5599 5598 5597 5596 5595 5594 5592 5591 5589
5623 5621 5620 5618 5616 5615 5613 5611 5609 5608 5606 5604 5603 5601 5600 5599 5599 5598 5597 5597 5596 5596 5596 5595 5594 5594 5594 5594 5593 5593 5592 5591 5591 5590 5589 5588 5587 5587 5586 5585 5584 5582 5581 5579
5614 5612 5610 5608 5606 5605 5603 5601 5599 5597 5595 5594 5592 5591 5590 5589 5588 5587 5586 5586 5585 5585 5585 5585 5584 5584 5583 5583 5582 5582 5581 5581 5580 5579 5578 5578 5577 5576 5576 5575 5574 5573 5571 5570
5605 5603 5601 5599 5597 5595 5593 5591 5589 5587 5585 5583 5582 5580 5579 5578 5577 5576 5575 5575 5575 5574 5574 5574 5574 5574 5573 5573 5572 5572 5571 5571 5570 5569 5569 5568 5567 5567 5566 5565 5564 5564 5562 5561
5596 5594 5592 5589 5587 5585 5583 5581 5579 5577 5575 5573 5572 5570 5568 5567 5566 5565 5565 5565 5565 5564 5564 5564 5564 5563 5563 5563 5563 5562 5561 5561 5560 5560 5559 5559 5558 5557 5556 5556 5555 5555 5554 5553
5587 5585 5583 5581 5578 5576 5574 5572 5569 5567 5565 5563 5562 5560 5558 5557 5556 5555 5555 5555 5554 5554 5554 5554 5554 5554 5554 5554 5553 5553 5552 5552 5551 5550 5550 5549 5549 5548 5548 5547 5546 5546 5545 5544
5578 5576 5574 5571 5569 5567 5565 5562 5560 5558 5556 5554 5552 5550 5549 5548 5547 5546 5545 5545 5545 5545 5545 5545 5545 5544 5544 5544 5544 5543 5543 5542 5542 5542 5541 5541 5540 5540 5539 5539 5538 5537 5537 5536
5569 5567 5565 5562 5560 5558 5556 5554 5551 5549 5547 5545 5543 5541 5540 5539 5538 5537 5537 5537 5536 5536 5536 5536 5536 5536 5536 5535 5535 5535 5534 5534 5533 5533 5532 5532 5532 5531 5531 5530 5530 5529 5529 5528
5560 5558 5556 5554 5552 5550 5548 5546 5543 5541 5539 5537 5535 5533 5532 5531 5530 5529 5529 5529 5528 5528 5528 5528 5528 5527 5527 5527 5527 5527 5526 5526 5525 5525 5524 5523 5523 5523 5522 5522 5522 5521 5521 5520
5553 5551 5549 5547 5544 5542 5540 5538 5535 5533 5531 5529 5528 5526 5525 5523 5523 5522 5521 5521 5521 5520 5520 5520 5520 5520 5520 5520 5520 5520 5519 5519 5518 5517 5517 5516 5515 5515 5514 5514 5514 5514 5513 5512